TimeEDT,TemperatureF,Dew PointF,Humidity,Sea Level PressureIn,VisibilityMPH,Wind Direction,Wind SpeedMPH,Gust SpeedMPH,PrecipitationIn,Events,Conditions,WindDirDegrees,DateUTC
12:52 AM,60.1,57.9,93,30.01,6.0,Calm,Calm,-,N/A,,Overcast,0,2013-05-21 04:52:00
1:52 AM,59.0,57.9,96,30.01,4.0,Calm,Calm,-,N/A,,Mostly Cloudy,0,2013-05-21 05:52:00
2:38 AM,57.2,55.4,94,29.97,2.0,Calm,Calm,-,N/A,,Clear,0,2013-05-21 06:38:00
2:50 AM,57.2,55.4,94,29.97,3.0,Calm,Calm,-,N/A,,Partly Cloudy,0,2013-05-21 06:50:00
2:51 AM,57.0,55.9,96,29.97,4.0,Calm,Calm,-,N/A,,Partly Cloudy,0,2013-05-21 06:51:00
3:52 AM,55.9,54.0,93,29.97,5.0,Calm,Calm,-,N/A,,Clear,0,2013-05-21 07:52:00
4:12 AM,55.4,55.4,100,29.97,3.0,Calm,Calm,-,N/A,,Scattered Clouds,0,2013-05-21 08:12:00
4:17 AM,55.4,55.4,100,29.97,2.5,Calm,Calm,-,N/A,,Mostly Cloudy,0,2013-05-21 08:17:00
4:31 AM,55.4,55.4,100,29.98,1.0,Calm,Calm,-,N/A,,Overcast,0,2013-05-21 08:31:00
4:38 AM,55.4,55.4,100,29.98,0.5,Calm,Calm,-,N/A,Fog,Fog,0,2013-05-21 08:38:00
4:52 AM,55.9,55.0,97,29.99,0.2,Calm,Calm,-,N/A,Fog,Fog,0,2013-05-21 08:52:00
5:19 AM,55.4,53.6,94,29.97,1.2,Calm,Calm,-,N/A,,Mostly Cloudy,0,2013-05-21 09:19:00
5:24 AM,55.4,53.6,94,29.96,0.8,South,3.5,-,N/A,,Mist,190,2013-05-21 09:24:00
5:34 AM,53.6,53.6,100,29.96,1.2,Calm,Calm,-,N/A,,Scattered Clouds,0,2013-05-21 09:34:00
5:37 AM,53.6,53.6,100,29.96,2.0,Calm,Calm,-,N/A,,Scattered Clouds,0,2013-05-21 09:37:00
5:52 AM,55.0,54.0,96,29.98,2.0,Calm,Calm,-,N/A,,Scattered Clouds,0,2013-05-21 09:52:00
6:08 AM,55.4,53.6,94,29.97,3.0,Calm,Calm,-,N/A,,Scattered Clouds,0,2013-05-21 10:08:00
6:52 AM,57.0,55.9,96,29.96,3.0,Calm,Calm,-,N/A,,Clear,0,2013-05-21 10:52:00
7:52 AM,64.0,59.0,84,29.97,10.0,Calm,Calm,-,N/A,,Clear,0,2013-05-21 11:52:00
8:52 AM,69.1,59.0,70,29.96,10.0,SSE,9.2,-,N/A,,Partly Cloudy,160,2013-05-21 12:52:00
9:52 AM,72.0,60.1,66,29.94,10.0,SE,5.8,-,N/A,,Scattered Clouds,130,2013-05-21 13:52:00
10:35 AM,73.4,60.8,65,29.94,10.0,WSW,4.6,-,N/A,Thunderstorm,Mostly Cloudy,240,2013-05-21 14:35:00
10:52 AM,73.9,62.1,66,29.94,10.0,SW,6.9,-,N/A,,Mostly Cloudy,220,2013-05-21 14:52:00
11:52 AM,78.1,63.0,60,29.91,10.0,Calm,Calm,-,N/A,,Partly Cloudy,0,2013-05-21 15:52:00
12:52 PM,80.1,63.0,56,29.91,10.0,Variable,3.5,-,N/A,,Partly Cloudy,0,2013-05-21 16:52:00
1:52 PM,82.9,59.0,44,29.89,10.0,Calm,Calm,-,N/A,,Scattered Clouds,0,2013-05-21 17:52:00
2:52 PM,79.0,64.9,62,29.89,10.0,Variable,3.5,-,N/A,,Scattered Clouds,0,2013-05-21 18:52:00
3:52 PM,78.1,64.0,62,29.90,10.0,Variable,3.5,-,N/A,,Partly Cloudy,0,2013-05-21 19:52:00
4:52 PM,75.0,63.0,66,29.90,10.0,Variable,5.8,-,N/A,,Clear,0,2013-05-21 20:52:00
5:52 PM,64.9,55.0,70,29.93,10.0,East,8.1,-,N/A,,Clear,100,2013-05-21 21:52:00
6:31 PM,55.4,51.8,88,29.97,10.0,ESE,8.1,-,N/A,,Mostly Cloudy,120,2013-05-21 22:31:00
6:52 PM,55.0,51.1,86,30.00,10.0,Calm,Calm,-,N/A,,Overcast,0,2013-05-21 22:52:00
7:03 PM,53.6,50.0,88,30.00,10.0,Variable,4.6,-,N/A,,Overcast,0,2013-05-21 23:03:00
7:52 PM,52.0,48.9,89,30.01,10.0,Calm,Calm,-,N/A,,Overcast,0,2013-05-21 23:52:00
8:12 PM,51.8,48.2,88,29.99,10.0,Variable,3.5,-,N/A,Thunderstorm,Overcast,0,2013-05-22 00:12:00
8:27 PM,51.8,48.2,88,29.99,10.0,Variable,3.5,-,N/A,,Overcast,0,2013-05-22 00:27:00
8:52 PM,50.0,48.0,93,29.99,10.0,Variable,4.6,-,N/A,,Overcast,0,2013-05-22 00:52:00
9:52 PM,50.0,48.0,93,30.00,7.0,Variable,3.5,-,N/A,,Overcast,0,2013-05-22 01:52:00
10:47 PM,48.2,46.4,93,29.98,10.0,Variable,3.5,-,0.01,,Overcast,0,2013-05-22 02:47:00
10:52 PM,48.9,46.9,93,30.01,10.0,Variable,5.8,-,0.01,,Overcast,0,2013-05-22 02:52:00
11:15 PM,48.2,46.4,93,30.02,3.0,Variable,6.9,-,0.01,Rain,Light Rain,0,2013-05-22 03:15:00
11:30 PM,48.2,46.4,93,30.01,4.0,Variable,6.9,-,0.04,Rain-Thunderstorm,Light Rain,0,2013-05-22 03:30:00
11:47 PM,48.2,46.4,93,30.11,1.8,NW,8.1,-,0.18,Rain-Thunderstorm,Heavy Thunderstorms and Rain,310,2013-05-22 03:47:00
11:52 PM,48.9,46.9,93,30.07,1.5,Variable,4.6,-,0.28,Rain-Thunderstorm,Heavy Thunderstorms and Rain,0,2013-05-22 03:52:00
11:59 PM,48.2,46.4,93,30.04,1.2,Variable,3.5,-,0.12,Rain-Thunderstorm,Heavy Thunderstorms and Rain,0,2013-05-22 03:59:00